#timestamp,LO_Frequency,Hit,StdDev 
1607885095.7,286046986.9,P
1607885115.5,286046987.2,P
1607885135.3,286046988.3,P
1607885155.2,286046985.8,Y
1607885175.0,286046998.1,P
1607885175.9,286046998.1,N
1607885195.8,286047000.6,N
1607885215.6,286047001.6,N
1607885235.4,286046999.7,N
1607885255.3,286046998.9,N
1607885275.1,286046998.3,N
1607885295.8,286047000.5,N
1607885315.7,286046999.4,N
1607885335.5,286046996.8,N
1607885355.4,286046994.9,N
1607885375.2,286046997.6,N
1607885395.0,286046999.1,N
1607885395.9,286046999.1,N
1607885415.8,286046996.8,N
1607885435.6,286046999.5,N
1607885455.5,286046996.7,N
1607885475.3,286046997.0,N
1607885495.1,286046997.8,N
1607885515.9,286046993.3,N
1607885535.7,286046995.7,N
1607885555.5,286046996.2,N
1607885575.4,286046996.2,N
1607885595.2,286046995.7,N
1607885615.1,286046994.1,N
1607885616.0,286046994.1,N
1607885635.8,286046993.6,N
1607885655.6,286046994.0,N
1607885675.5,286046999.4,N
1607885725.3,286046996.6,E
1607885735.3,286046995.3,N
1607885755.1,286046997.5,P
1607885756.0,286046997.5,N
1607885775.8,286046997.8,N
1607885795.7,286046996.2,Y
1607885815.5,286047001.0,P
1607885835.4,286046999.0,N
1607885855.2,286046997.6,N
1607885875.0,286046994.1,Y
1607885875.9,286046994.1,P
1607885895.8,286046993.4,N
1607885915.6,286046997.6,N
1607885935.4,286046997.3,N
1607885955.3,286046995.9,N
1607885975.1,286046996.4,N
1607885995.9,286046995.8,N
